Location: Newark
(34.3481°N, 134.0494°E)
Time: 01:39:20
(UTC+00:00)

Vanguard 3 - Pass Details

Date: 04 February 2020
Orbit: 508 x 3263 km, 33.3° (Epoch: 19 February)

Event Time Altitude Azimuth Distance (km) Brightness Sun altitude
Rises 08:19:31 0° 271° (W) 6,415 13.2 2.3°
Reaches altitude 10° 08:23:20 10° 271° (W) 5,652 12.9 1.6°
Maximum altitude 08:42:22 86° 185° (S) 3,267 10.3 -2.1°
Drops below altitude 10° 09:01:00 10° 100° (E) 5,557 10.8 -5.8°
Enters shadow 09:04:20 - 100° (E) 6,228 11.1 -6.5°
Sets 09:04:43 0° 100° (E) 6,308 - -6.5°
